Location: Davidschlag
(48.4333°N, 14.2833°E)
Time: 07:24:56
(UTC+00:00)

STARLINK-25 - Pass Details

Date: 27 February 2020
Orbit: 529 x 531 km, 53.0° (Epoch: 31 March)

Event Time Altitude Azimuth Distance (km) Brightness Sun altitude
Rises 17:10:10 0° 268° (W) 2,664 9.9 -5.3°
Reaches altitude 10° 17:12:27 10° 274° (W) 1,775 8.0 -5.7°
Maximum altitude 17:16:21 47° 349° (N) 705 4.2 -6.4°
Drops below altitude 10° 17:20:16 10° 65° (ENE) 1,780 5.6 -7.0°
Enters shadow 17:20:43 - 66° (ENE) 1,956 5.8 -7.1°
